CAPE
6 6 0 29 13 9 6 0 1 30 19 33 0 0 0 0 5 4 0 0 0 0 0 0 0 0 0 0 0 0 0 0 0 0 0 0 0 0 0 0 0 0 0 0
26 24 0 35 5 56 31 71 88 34 0 0 0 8 1 3 0 0 0 0 0 0 0 0 0 0 0 0 0 0 0 0 0 0 0 0 0 0 0 0 0 0 0 0
3 19 1 0 2 20 5 79 41 0 1 0 0 16 0 0 0 0 0 0 0 0 0 0 0 0 0 0 0 0 0 0 0 0 0 0 0 0 0 0 0 0 0 0
2 0 0 0 15 34 9 1 35 0 4 0 0 0 0 0 0 0 0 0 0 0 0 0 0 0 0 0 0 0 0 0 0 0 0 0 0 0 0 0 0 0 0 0
0 0 0 4 0 0 0 0 3 0 0 0 0 0 0 0 0 0 0 0 0 0 0 0 0 0 0 0 0 0 0 0 0 0 0 0 0 0 0 0 0 0 0 0
0 0 2 11 10 0 0 0 0 0 0 0 0 0 0 0 0 0 0 0 0 0 0 0 0 0 0 0 0 0 0 0 0 0 0 0 0 0 0 0 0 0 0 0
0 0 0 1 0 0 0 0 0 0 0 0 0 0 0 0 0 0 0 0 0 0 0 0 0 0 0 0 0 0 0 0 0 0 0 0 0 0 0 0 0 0 0 0
0 0 0 0 2 0 0 0 0 0 0 0 0 0 0 0 0 0 0 0 0 0 0 0 0 0 0 0 0 0 0 0 0 0 0 0 0 0 0 0 0 0 0 0
0 7 0 0 0 0 0 0 0 0 0 0 0 0 0 0 0 0 0 0 0 0 0 0 0 0 0 0 0 0 0 0 0 0 0 0 0 0 0 0 0 0 0 0
0 0 0 0 0 0 0 0 0 0 0 0 0 0 0 0 0 0 0 0 0 0 0 0 0 0 0 0 0 0 0 0 0 0 0 0 0 0 0 0 0 0 0 0
1 0 0 0 0 0 0 0 0 0 0 0 0 0 0 0 0 0 0 0 0 0 0 0 0 0 0 0 0 0 0 0 0 0 0 0 0 0 0 0 0 0 0 1
0 0 0 0 0 0 0 0 0 0 0 0 0 0 0 0 0 0 0 0 0 0 0 0 0 0 0 0 0 0 0 0 0 0 0 0 0 0 0 0 0 0 0 0
0 0 0 0 0 0 0 0 0 0 0 0 0 0 0 0 0 0 0 0 0 0 0 0 0 0 0 0 0 0 0 0 0 0 0 0 0 0 0 0 0 0 0 0
0 0 0 0 0 0 0 0 0 0 0 0 0 0 0 0 0 0 0 0 0 0 0 0 0 0 0 0 0 0 0 0 0 0 0 0 0 0 0 0 0 0 0 0
0 0 0 0 0 0 0 0 0 0 0 0 0 0 0 0 0 0 0 0 0 0 0 0 0 0 0 0 0 0 0 0 0 0 0 0 0 0 0 0 0 0 0 0
0 0 0 0 0 0 0 0 0 0 0 0 0 0 0 0 0 0 0 0 0 0 0 0 0 0 0 0 0 0 0 0 0 0 0 0 0 0 0 0 0 0 0 0
0 0 0 0 0 0 0 0 0 0 0 0 0 0 0 0 0 0 0 0 0 0 0 0 0 0 0 0 0 0 0 0 0 0 0 0 0 0 0 0 0 0 0 0
0 0 0 0 0 0 0 0 0 0 0 0 0 0 0 0 0 0 0 0 0 0 0 0 0 0 0 0 0 0 0 0 0 0 0 0 0 0 0 0 0 0 0 0
0 0 0 0 0 0 0 0 0 0 0 0 0 0 0 0 0 0 0 0 0 0 0 0 0 0 0 0 0 0 0 0 0 0 0 0 0 0 0 0 0 0 0 0
0 0 0 0 0 0 0 0 0 0 0 0 0 0 0 0 0 0 0 0 0 0 0 0 0 0 0 0 0 0 0 0 0 0 0 0 0 0 0 0 0 0 0 0
0 0 0 0 0 0 0 0 0 0 0 0 0 0 0 0 0 0 0 0 0 0 0 0 0 0 0 0 0 0 0 0 0 0 0 0 0 0 0 0 0 0 0 0
0 0 0 0 0 0 0 0 0 0 0 0 0 0 0 0 0 0 0 0 0 0 0 0 0 0 0 0 0 0 0 0 0 0 0 0 0 0 0 0 0 0 0 0
0 0 0 0 0 0 0 0 0 0 0 0 0 0 0 0 0 0 0 0 0 0 0 0 0 0 0 0 0 0 0 0 0 0 0 0 0 0 0 0 0 0 0 0
0 0 0 0 0 0 0 0 0 0 0 0 0 0 0 0 0 0 0 0 0 0 0 0 0 0 0 0 0 0 0 0 0 0 0 0 0 0 0 0 0 0 0 0
0 0 0 0 0 0 0 0 0 0 0 0 0 0 0 0 0 0 0 0 0 0 0 0 0 0 0 0 0 0 0 0 0 0 0 0 0 0 0 0 0 0 0 0
0 0 0 0 0 0 0 0 0 0 0 0 0 0 0 0 0 0 0 0 0 0 0 0 0 0 0 0 0 0 0 0 0 0 0 0 0 0 0 0 0 0 0 0
0 0 0 0 0 0 0 0 0 0 0 0 0 0 0 0 0 0 0 0 0 0 0 0 0 0 0 0 0 0 0 0 0 0 0 0 0 0 0 0 0 0 0 0
CIN
-38 -55 -0 -44 -121 -100 -44 -0 -50 -144 -127 -229 -0 -51 -30 -58 -16 -68 -0 -0 -0 -0 -0 -0 -0 -0 -0 -0 -0 -0 -0 -0 -0 -0 -0 -0 -0 -0 -0 -0 -0 -0 -0 -0
-48 -48 -0 -17 -113 -105 -135 -182 -211 -201 -3 -0 -0 -199 -178 -190 -0 -0 -0 -0 -0 -0 -0 -0 -0 -0 -0 -0 -0 -0 -0 -0 -0 -0 -0 -0 -0 -0 -0 -0 -0 -0 -0 -0
-0 -19 -12 -0 -14 -147 -136 -162 -182 -0 -169 -0 -0 -211 -50 -0 -0 -0 -0 -0 -0 -0 -0 -0 -0 -0 -0 -0 -0 -0 -0 -0 -0 -0 -0 -0 -0 -0 -0 -0 -0 -0 -0 -0
-0 -6 -0 -0 -63 -91 -101 -67 -98 -0 -109 -0 -0 -0 -0 -0 -0 -0 -0 -0 -0 -0 -0 -0 -0 -0 -0 -0 -0 -0 -0 -0 -0 -0 -0 -0 -0 -0 -0 -0 -0 -0 -0 -0
-0 -0 -0 -36 -0 -0 -8 -0 -115 -0 -0 -0 -0 -0 -0 -0 -0 -0 -0 -0 -0 -0 -0 -0 -0 -0 -0 -0 -0 -0 -0 -0 -0 -0 -0 -0 -0 -0 -0 -0 -0 -0 -0 -0
-0 -0 -0 -11 -26 -0 -0 -0 -0 -0 -0 -0 -0 -0 -0 -0 -0 -0 -0 -0 -0 -0 -0 -0 -0 -0 -0 -0 -0 -0 -0 -0 -0 -0 -0 -0 -0 -0 -0 -0 -0 -0 -0 -0
-0 -0 -0 -12 -0 -0 -0 -0 -0 -0 -0 -0 -0 -0 -0 -0 -0 -0 -0 -0 -0 -0 -0 -0 -0 -0 -0 -0 -0 -0 -0 -0 -0 -0 -0 -0 -0 -0 -0 -0 -0 -0 -0 -0
-0 -0 -0 -0 -31 -0 -0 -0 -0 -0 -0 -0 -0 -0 -0 -0 -0 -0 -0 -0 -0 -0 -0 -0 -0 -0 -0 -0 -0 -0 -0 -0 -0 -0 -0 -0 -0 -0 -0 -0 -0 -0 -0 -0
-0 -0 -0 -0 -0 -0 -0 -0 -0 -0 -0 -0 -0 -0 -0 -0 -0 -0 -0 -0 -0 -0 -0 -0 -0 -0 -0 -0 -0 -0 -0 -0 -0 -0 -0 -0 -0 -0 -0 -0 -0 -0 -0 -0
-0 -0 -0 -0 -0 -0 -0 -0 -0 -0 -0 -0 -0 -0 -0 -0 -0 -0 -0 -0 -0 -0 -0 -0 -0 -0 -0 -0 -0 -0 -0 -0 -0 -0 -0 -0 -0 -0 -0 -0 -0 -0 -0 -0
-0 -0 -0 -0 -0 -0 -0 -0 -0 -0 -0 -0 -0 -0 -0 -0 -0 -0 -0 -0 -0 -0 -0 -0 -0 -0 -0 -0 -0 -0 -0 -0 -0 -0 -0 -0 -0 -0 -0 -0 -0 -0 -0 -0
-0 -0 -0 -0 -0 -0 -0 -0 -0 -0 -0 -0 -0 -0 -0 -0 -0 -0 -0 -0 -0 -0 -0 -0 -0 -0 -0 -0 -0 -0 -0 -0 -0 -0 -0 -0 -0 -0 -0 -0 -0 -0 -0 -0
-0 -0 -0 -0 -0 -0 -0 -0 -0 -0 -0 -0 -0 -0 -0 -0 -0 -0 -0 -0 -0 -0 -0 -0 -0 -0 -0 -0 -0 -0 -0 -0 -0 -0 -0 -0 -0 -0 -0 -0 -0 -0 -0 -0
-0 -0 -0 -0 -0 -0 -0 -0 -0 -0 -0 -0 -0 -0 -0 -0 -0 -0 -0 -0 -0 -0 -0 -0 -0 -0 -0 -0 -0 -0 -0 -0 -0 -0 -0 -0 -0 -0 -0 -0 -0 -0 -0 -0
-0 -0 -0 -0 -0 -0 -0 -0 -0 -0 -0 -0 -0 -0 -0 -0 -0 -0 -0 -0 -0 -0 -0 -0 -0 -0 -0 -0 -0 -0 -0 -0 -0 -0 -0 -0 -0 -0 -0 -0 -0 -0 -0 -0
-0 -0 -0 -0 -0 -0 -0 -0 -0 -0 -0 -0 -0 -0 -0 -0 -0 -0 -0 -0 -0 -0 -0 -0 -0 -0 -0 -0 -0 -0 -0 -0 -0 -0 -0 -0 -0 -0 -0 -0 -0 -0 -0 -0
-0 -0 -0 -0 -0 -0 -0 -0 -0 -0 -0 -0 -0 -0 -0 -0 -0 -0 -0 -0 -0 -0 -0 -0 -0 -0 -0 -0 -0 -0 -0 -0 -0 -0 -0 -0 -0 -0 -0 -0 -0 -0 -0 -0
-0 -0 -0 -0 -0 -0 -0 -0 -0 -0 -0 -0 -0 -0 -0 -0 -0 -0 -0 -0 -0 -0 -0 -0 -0 -0 -0 -0 -0 -0 -0 -0 -0 -0 -0 -0 -0 -0 -0 -0 -0 -0 -0 -0
-0 -0 -0 -0 -0 -0 -0 -0 -0 -0 -0 -0 -0 -0 -0 -0 -0 -0 -0 -0 -0 -0 -0 -0 -0 -0 -0 -0 -0 -0 -0 -0 -0 -0 -0 -0 -0 -0 -0 -0 -0 -0 -0 -0
-0 -0 -0 -0 -0 -0 -0 -0 -0 -0 -0 -0 -0 -0 -0 -0 -0 -0 -0 -0 -0 -0 -0 -0 -0 -0 -0 -0 -0 -0 -0 -0 -0 -0 -0 -0 -0 -0 -0 -0 -0 -0 -0 -0
-0 -0 -0 -0 -0 -0 -0 -0 -0 -0 -0 -0 -0 -0 -0 -0 -0 -0 -0 -0 -0 -0 -0 -0 -0 -0 -0 -0 -0 -0 -0 -0 -0 -0 -0 -0 -0 -0 -0 -0 -0 -0 -0 -0
-0 -0 -0 -0 -0 -0 -0 -0 -0 -0 -0 -0 -0 -0 -0 -0 -0 -0 -0 -0 -0 -0 -0 -0 -0 -0 -0 -0 -0 -0 -0 -0 -0 -0 -0 -0 -0 -0 -0 -0 -0 -0 -0 -0
-0 -0 -0 -0 -0 -0 -0 -0 -0 -0 -0 -0 -0 -0 -0 -0 -0 -0 -0 -0 -0 -0 -0 -0 -0 -0 -0 -0 -0 -0 -0 -0 -0 -0 -0 -0 -0 -0 -0 -0 -0 -0 -0 -0
-0 -0 -0 -0 -0 -0 -0 -0 -0 -0 -0 -0 -0 -0 -0 -0 -0 -0 -0 -0 -0 -0 -0 -0 -0 -0 -0 -0 -0 -0 -0 -0 -0 -0 -0 -0 -0 -0 -0 -0 -0 -0 -0 -0
-0 -0 -0 -0 -0 -0 -0 -0 -0 -0 -0 -0 -0 -0 -0 -0 -0 -0 -0 -0 -0 -0 -0 -0 -0 -0 -0 -0 -0 -0 -0 -0 -0 -0 -0 -0 -0 -0 -0 -0 -0 -0 -0 -0
-0 -0 -0 -0 -0 -0 -0 -0 -0 -0 -0 -0 -0 -0 -0 -0 -0 -0 -0 -0 -0 -0 -0 -0 -0 -0 -0 -0 -0 -0 -0 -0 -0 -0 -0 -0 -0 -0 -0 -0 -0 -0 -0 -0
-0 -0 -0 -0 -0 -0 -0 -0 -0 -0 -0 -0 -0 -0 -0 -0 -0 -0 -0 -0 -0 -0 -0 -0 -0 -0 -0 -0 -0 -0 -0 -0 -0 -0 -0 -0 -0 -0 -0 -0 -0 -0 -0 -0
Wind_Speed
6 11 12 1 3 3 6 9 8 10 10 16 14 15 18 18 16 4 8 12 13 13 11 8 9 8 9 8 8 6 6 7 8 8 7 7 7 6 5 4 2 4 5 6
6 12 21 4 6 9 9 10 12 10 3 5 7 14 11 15 15 14 15 12 13 13 12 11 9 8 8 7 7 6 7 7 7 7 7 7 6 6 5 5 5 5 6 6
4 6 10 2 3 9 12 8 13 6 4 13 4 17 19 19 17 17 15 12 12 12 11 8 7 7 7 6 6 7 7 7 8 7 7 6 6 5 5 6 6 7 6 7
5 6 6 3 7 13 17 11 5 6 10 13 7 13 9 10 20 17 16 13 10 10 9 6 6 7 6 7 9 8 7 7 7 8 8 7 6 6 6 5 6 5 7 7
5 5 4 4 7 10 8 5 6 6 16 21 19 21 16 13 14 16 14 10 10 9 9 7 8 7 8 8 7 7 7 8 8 7 7 7 6 7 7 6 7 5 5 7
3 6 5 4 5 13 10 3 3 21 19 22 16 10 4 11 14 14 13 11 11 9 11 9 6 7 8 7 6 6 7 7 7 8 7 8 8 8 8 7 7 6 6 6
3 6 3 1 7 8 7 7 9 19 16 11 7 9 13 11 12 12 11 11 8 8 7 6 6 7 6 4 4 4 5 6 8 7 8 7 7 7 7 7 5 6 6 7
4 6 1 4 3 9 6 7 17 15 16 22 22 18 14 12 11 10 9 8 8 8 6 6 6 7 5 4 5 4 5 5 7 7 6 7 7 7 8 8 8 6 7 7
4 4 4 11 21 15 17 20 18 22 17 23 20 17 14 11 10 10 9 9 7 7 7 5 5 6 4 3 4 5 5 6 6 7 7 7 6 5 5 6 6 7 7 7
7 10 15 19 18 17 18 20 17 18 18 18 20 16 15 12 11 11 10 9 6 7 7 5 4 4 2 2 4 5 4 5 7 7 8 7 5 4 5 7 7 7 6 7
15 14 21 16 17 18 19 19 19 16 16 18 19 16 15 12 11 10 8 6 6 6 7 5 4 5 4 5 5 5 4 3 3 3 6 6 5 4 5 6 6 6 6 6
6 6 17 12 15 19 20 18 18 21 18 16 19 15 14 11 9 9 8 6 7 7 7 5 6 5 6 6 5 5 5 4 2 2 2 3 4 4 2 3 4 7 9 8
9 12 18 17 17 20 20 18 18 19 18 17 12 14 14 11 9 13 9 8 8 7 6 5 5 6 6 6 6 6 4 5 3 2 3 3 3 3 4 4 2 6 11 12
20 23 16 15 14 19 20 19 20 17 15 15 14 11 13 11 11 10 9 7 7 6 6 6 6 6 6 7 7 7 6 10 6 4 4 3 3 3 3 3 6 8 10 11
12 13 19 17 18 18 18 17 17 15 14 13 11 11 11 10 9 8 7 7 6 6 7 6 6 6 7 7 7 7 6 6 6 6 7 6 6 5 5 5 4 6 7 12
19 19 17 19 18 16 17 16 16 14 13 12 11 10 10 10 9 8 7 6 5 6 5 6 6 6 8 7 7 7 7 14 10 7 7 7 8 8 8 6 8 7 8 11
20 15 16 16 17 15 16 14 14 13 12 12 11 11 10 9 8 8 7 6 6 6 5 5 5 7 8 7 6 5 5 6 10 8 8 8 7 8 8 8 8 8 8 9
13 13 12 16 15 15 14 14 14 13 11 12 11 10 9 8 7 7 6 5 6 6 6 6 6 7 8 7 6 5 6 6 7 7 7 8 8 7 7 7 8 8 8 9
11 11 9 13 14 15 15 14 12 12 12 13 11 10 9 8 8 6 6 6 6 5 5 5 10 8 7 8 6 5 6 7 6 6 6 9 7 8 7 7 7 8 8 8
13 17 17 17 18 17 15 12 14 12 10 10 10 10 9 7 7 7 6 5 3 2 2 4 5 6 5 6 7 4 5 5 5 4 5 6 7 7 6 9 8 7 8 8
18 18 18 17 15 13 13 13 13 12 10 11 11 9 8 7 6 6 7 4 3 2 3 5 5 4 3 4 4 4 4 4 4 4 6 5 4 5 6 6 6 7 7 7
16 16 15 15 13 11 9 9 11 11 10 9 10 10 10 7 6 5 4 4 0 5 3 3 4 3 6 8 4 4 4 5 4 4 5 5 4 4 5 5 6 7 7 6
14 14 14 13 13 11 11 10 10 10 8 8 9 8 7 5 5 6 4 1 3 5 3 4 6 8 8 5 4 5 5 4 3 4 3 2 3 3 4 6 6 6 8 8
14 13 12 11 11 11 10 6 8 8 7 7 8 8 9 5 2 1 4 5 6 6 4 4 7 8 7 4 4 4 5 4 3 2 2 4 2 3 3 4 5 5 6 8
13 11 10 10 10 7 9 8 8 7 8 7 7 7 6 4 5 5 4 4 6 4 5 5 8 8 5 4 5 5 4 4 2 2 2 2 2 3 3 4 4 5 6 7
11 7 7 10 9 7 6 5 5 4 5 5 3 6 4 4 4 4 3 5 5 6 4 3 5 5 5 5 5 5 4 4 4 3 2 2 2 3 3 3 4 3 5 6
7 7 6 5 4 6 5 5 5 5 4 5 5 4 5 5 5 5 6 5 6 5 4 4 5 5 5 5 4 4 3 3 3 3 3 2 3 3 4 5 4 4 5 6
Wind_Direction
138 156 162 7 49 41 128 158 151 177 161 186 176 169 161 152 151 156 87 119 114 108 101 93 80 73 60 49 39 30 29 17 2 360 11 33 44 62 44 23 329 277 277 289
67 145 157 155 49 75 99 103 83 120 105 80 168 157 155 162 155 155 146 124 108 97 90 80 73 69 61 46 27 27 25 31 26 14 10 14 20 18 359 330 304 308 302 296
105 136 123 55 144 84 91 82 136 147 196 65 164 156 159 163 154 129 122 113 101 93 88 85 82 72 58 50 33 44 33 23 17 7 360 348 340 339 337 324 314 301 310 306
132 126 140 113 130 109 99 88 53 108 120 97 99 68 76 120 127 122 113 108 100 100 95 85 71 60 55 47 40 31 21 7 3 359 344 337 329 327 325 309 302 306 304 313
164 123 130 100 158 153 135 165 150 108 123 120 112 86 54 74 98 106 109 112 112 106 95 78 60 51 55 47 35 18 9 351 348 335 324 320 314 320 309 296 301 298 292 307
178 96 87 261 172 135 112 12 51 142 149 142 153 107 137 110 106 108 108 105 103 102 78 67 55 59 60 40 24 1 354 336 327 324 329 319 313 314 307 302 291 308 309 310
61 86 26 113 347 161 81 207 129 138 153 124 102 103 131 120 106 106 113 114 102 96 111 113 85 75 60 38 18 341 333 326 336 337 324 311 318 310 327 327 327 344 328 327
68 80 118 357 32 133 150 82 109 101 109 107 109 115 122 120 119 123 125 116 119 115 108 96 89 85 66 29 329 337 336 329 342 338 328 324 327 4 350 352 359 336 337 354
80 81 358 68 102 99 106 107 113 118 126 118 117 122 123 117 106 100 100 106 104 104 105 100 105 104 94 297 331 340 348 340 360 349 342 348 10 8 356 2 353 346 10 350
73 51 82 87 83 92 100 102 104 102 110 108 111 110 109 105 96 88 89 95 97 95 103 106 105 96 136 309 344 4 360 356 15 8 356 356 3 9 18 17 360 343 3 346
92 95 80 69 88 104 99 100 98 93 100 106 107 104 105 98 95 95 92 87 81 82 89 98 73 55 20 357 349 335 336 334 353 3 5 357 1 6 26 26 17 10 2 353
129 104 107 106 98 97 95 100 103 104 96 93 102 107 106 101 104 103 97 86 77 76 85 71 60 33 1 350 349 340 331 319 270 318 333 326 343 341 8 30 25 25 10 4
126 110 105 103 96 94 96 96 96 98 102 104 97 103 98 102 96 92 80 76 71 74 73 58 50 14 354 348 353 357 333 314 328 253 307 327 336 329 344 15 16 23 12 11
114 107 92 105 111 102 99 99 96 96 95 97 100 93 97 99 92 85 79 76 68 58 47 39 25 9 353 353 2 10 3 19 25 21 337 330 324 335 332 350 15 17 17 12
93 95 113 114 107 104 106 105 99 99 101 96 97 100 97 97 94 92 86 80 68 59 47 30 15 357 358 1 18 23 31 30 27 29 25 24 21 9 18 14 4 6 10 15
111 114 116 116 115 115 113 108 108 108 109 109 104 104 105 102 103 98 91 87 77 60 36 26 15 344 12 15 28 38 42 32 36 34 27 29 30 23 19 19 18 15 22 19
118 125 126 124 128 131 126 125 122 122 122 117 119 114 113 114 107 102 92 80 72 64 39 32 6 17 28 25 39 45 43 41 32 40 32 30 31 27 21 24 20 18 14 23
112 132 133 136 139 132 130 126 123 124 123 127 120 116 114 113 117 117 115 99 62 46 32 24 27 27 31 26 43 50 47 41 42 40 34 32 31 27 23 19 18 14 7 6
127 129 116 128 130 126 124 122 119 119 117 123 125 121 116 110 108 106 97 83 73 58 351 29 36 32 26 29 60 64 56 52 47 42 42 38 34 29 23 15 16 9 6 5
105 103 103 109 114 121 118 115 116 116 117 112 117 118 114 113 115 106 94 89 98 175 66 40 32 36 32 41 66 73 72 69 58 29 41 43 39 25 19 14 13 10 6 4
116 113 111 110 112 112 113 122 122 120 115 111 109 119 127 124 119 116 91 83 356 83 80 31 11 41 68 90 85 90 85 62 48 39 42 51 30 24 18 2 2 4 1 357
117 114 112 112 112 110 107 110 115 120 122 119 116 114 112 112 120 108 116 130 152 73 61 3 346 25 115 116 101 84 82 76 57 42 34 52 30 14 6 355 0 359 351 351
112 113 111 110 112 112 106 108 115 125 130 131 130 131 131 142 140 134 125 241 74 68 50 9 12 62 98 98 89 73 73 97 72 54 46 41 16 13 3 1 350 359 350 350
112 109 110 111 110 107 100 94 98 104 107 108 123 138 141 132 89 140 141 143 110 85 58 18 38 45 91 104 94 82 72 81 79 66 60 54 16 355 350 350 346 344 348 343
120 119 116 111 106 112 117 117 104 102 102 100 117 145 135 166 141 184 160 154 162 102 45 20 50 46 68 88 96 88 84 81 86 73 50 55 9 356 341 339 332 334 337 337
122 123 128 133 139 140 139 132 135 142 127 122 113 134 148 160 155 150 151 156 145 116 98 64 60 58 71 71 76 75 70 63 70 61 60 37 5 341 319 310 319 313 327 322
113 113 114 109 128 140 145 141 141 162 151 153 148 167 160 162 144 125 123 111 131 129 126 96 82 78 88 88 83 77 67 51 62 64 26 353 337 319 318 312 304 305 316 313